Starlink 5536

operational
NORAD ID: 57062 Int'l Des: 2023-088 Owner: SPXS Country: US Constellation: starlink
LEOCIRCULAR

About Starlink 5536

Description loading...

Live Position

Loading 3D Globe...

Upcoming Passes

Altitude History

Altitude vs Time

uPlot chart will show altitude changes over time

Two-Line Element Set

1 57062U 23088Q 26048.75144185 .00000378 00000-0 43054-4 0 9994
2 57062 43.0018 202.5171 0001468 263.6285 96.4390 15.02534983147527
Epoch: Feb 17, 2026 • Age: 12 hours

Current Status

Altitude 561.3 km
Velocity 7.59 km/s
Sub-Earth Point 34.89°N, 97.37°E
Launch Date Jun 22, 2023
Age 2.6 years
Type internet

Technical Details

Classification Payload
Mass 305.00 kg
Dry Mass 290.00 kg
Total Mass 305.00 kg
Length 0.20 m
Diameter 2.80 m
Span 9.00 m
Shape Box + pan
Manufacturer SPXS
Bus Type Starlink
Phase Status In Orbit
Owner/State SPXS/US

Large Constellations

Loading constellations...